EW7966 Weather Reports


time (UTC)temp
C
wind
direction
speed
KPH
gust
KPH
rain 1hr
cm
rain 24hr
cm
rain mn
cm
humidity
%
barometer
mb
20260502205505 16 178 4.8 17.7 0.00 0.00 0.00 17 1018.8
20260502204504 16 274 4.8 17.7 0.00 0.00 0.00 20 1015.0
20260502204005 16 234 4.8 14.5 0.00 0.00 0.00 18 1019.0
20260502203505 16 301 4.8 14.5 0.00 0.00 0.00 17 1019.1
20260502203006 16 265 6.4 17.7 0.00 0.00 0.00 17 1015.3
20260502202006 16 111 8.0 16.1 0.00 0.00 0.00 18 1019.2
20260502201506 16 207 1.6 17.7 0.00 0.00 0.00 18 1015.4
20260502201005 16 129 11.3 17.7 0.00 0.00 0.00 18 1019.2
20260502200505 16 190 4.8 11.3 0.00 0.00 0.00 19 1019.3
20260502200006 16 157 3.2 12.9 0.00 0.00 0.00 20 1019.4
20260502200004 16 157 1.6 12.9 0.00 0.00 0.00 20 1015.7
20260502195505 15 81 0.0 9.7 0.00 0.00 0.00 22 1019.4
20260502195006 15 102 3.2 12.9 0.00 0.00 0.00 22 1019.4
20260502194505 15 44 4.8 12.9 0.00 0.00 0.00 24 1019.5
20260502193504 15 5 4.8 12.9 0.00 0.00 0.00 23 1019.5
20260502193005 15 15 4.8 19.3 0.00 0.00 0.00 22 1019.6
20260502193003 15 15 3.2 19.3 0.00 0.00 0.00 22 1016.0
20260502192505 15 14 6.4 22.5 0.00 0.00 0.00 22 1019.7
20260502191505 15 28 4.8 16.1 0.00 0.00 0.00 21 1016.3
20260502191006 15 321 4.8 17.7 0.00 0.00 0.00 26 1019.9
20260502190505 15 301 6.4 17.7 0.00 0.00 0.00 25 1019.9
20260502190013 14 327 6.4 17.7 0.00 0.00 0.00 23 1016.4
20260502190007 14 327 6.4 17.7 0.00 0.00 0.00 23 1019.9
20260502185500 14 286 11.3 17.7 0.00 0.00 0.00 24 1020.1
20260502185005 14 79 1.6 9.7 0.00 0.00 0.00 25 1020.1
20260502184506 14 29 4.8 9.7 0.00 0.00 0.00 25 1020.1
20260502184503 14 29 3.2 9.7 0.00 0.00 0.00 25 1016.7
20260502183507 14 18 6.4 16.1 0.00 0.00 0.00 22 1020.3
20260502183003 14 323 9.7 12.9 0.00 0.00 0.00 22 1017.0
20260502181506 14 255 6.4 12.9 0.00 0.00 0.00 25 1020.5
20260502181503 14 255 4.8 12.9 0.00 0.00 0.00 25 1017.3
20260502181006 13 329 4.8 19.3 0.00 0.00 0.00 23 1020.5
20260502180506 13 297 11.3 17.7 0.00 0.00 0.00 25 1020.5
20260502170505 12 300 8.0 17.7 0.00 0.00 0.00 23 1021.0
20260502163006 12 299 1.6 8.0 0.00 0.00 0.00 28 1021.1
20260502163003 12 299 1.6 8.0 0.00 0.00 0.00 28 1018.0
20260502162506 12 250 4.8 12.9 0.00 0.00 0.00 29 1021.0
20260502161503 11 278 4.8 19.3 0.00 0.00 0.00 27 1017.9
20260502161006 11 290 12.9 19.3 0.00 0.00 0.00 28 1021.0
20260502160505 11 313 6.4 19.3 0.00 0.00 0.00 30 1021.1
20260502152006 11 249 3.2 14.5 0.00 0.00 0.00 35 1021.2
20260502151503 11 302 4.8 14.5 0.00 0.00 0.00 34 1018.5
20260502151005 10 254 4.8 14.5 0.00 0.00 0.00 33 1021.3
20260502130505 3 205 4.8 8.0 0.00 0.00 0.00 54 1021.1
20260502123505 1 219 4.8 8.0 0.00 0.00 0.00 57 1020.9
20260502123011 1 205 4.8 8.0 0.00 0.00 0.00 58 1018.6
20260502122505 1 213 4.8 8.0 0.00 0.00 0.00 58 1020.7
20260502121505 1 217 4.8 9.7 0.00 0.00 0.00 58 1020.6
20260502121503 1 217 4.8 9.7 0.00 0.00 0.00 58 1018.4
20260502121005 1 198 4.8 8.0 0.00 0.00 0.00 58 1020.6
20260502120505 1 198 4.8 8.0 0.00 0.00 0.00 58 1020.5
20260502115505 1 198 4.8 9.7 0.00 0.00 0.00 57 1020.5
20260502115005 1 198 3.2 9.7 0.00 0.00 0.00 57 1020.5
20260502114506 1 198 4.8 11.3 0.00 0.00 0.00 57 1020.5
20260502114504 1 198 3.2 11.3 0.00 0.00 0.00 57 1018.3
20260502114006 1 198 6.4 11.3 0.00 0.00 0.00 57 1020.5
20260502113504 1 198 4.8 11.3 0.00 0.00 0.00 58 1020.6
20260502113003 1 198 6.4 11.3 0.00 0.00 0.00 57 1018.4
20260502112504 1 198 6.4 9.7 0.00 0.00 0.00 57 1020.5
20260502112006 1 198 4.8 8.0 0.00 0.00 0.00 58 1020.5
20260502111505 1 198 4.8 8.0 0.00 0.00 0.00 58 1020.5
20260502111503 1 198 3.2 8.0 0.00 0.00 0.00 58 1018.3
20260502111005 1 198 3.2 9.7 0.00 0.00 0.00 58 1020.5
20260502110505 1 198 3.2 9.7 0.00 0.00 0.00 59 1020.5
20260502110009 1 198 0.0 8.0 0.00 0.00 0.00 59 1018.3
20260502105005 1 198 3.2 9.7 0.00 0.00 0.00 60 1020.5
20260502104505 1 198 4.8 9.7 0.00 0.00 0.00 59 1020.4
20260502104503 1 198 4.8 9.7 0.00 0.00 0.00 59 1018.4
20260502104005 1 198 4.8 9.7 0.00 0.00 0.00 60 1020.4
20260502103504 1 198 4.8 8.0 0.00 0.00 0.00 60 1020.4
20260502103006 1 198 4.8 9.7 0.00 0.00 0.00 60 1020.4
20260502103003 1 198 3.2 9.7 0.00 0.00 0.00 60 1018.4
20260502102504 1 198 6.4 9.7 0.00 0.00 0.00 60 1020.5
20260502102006 1 198 4.8 9.7 0.00 0.00 0.00 60 1020.5
20260502101503 1 213 4.8 9.7 0.00 0.00 0.00 60 1018.5
20260502101006 1 204 3.2 9.7 0.00 0.00 0.00 60 1020.3
20260502100504 1 204 4.8 8.0 0.00 0.00 0.00 60 1020.3
20260502091503 1 223 1.6 9.7 0.00 0.00 0.00 59 1018.4
20260502091007 1 216 4.8 8.0 0.00 0.00 0.00 58 1020.3
20260502090504 1 216 3.2 9.7 0.00 0.00 0.00 57 1020.2
20260502080104 1 209 0.0 4.8 0.00 0.00 0.00 64 1018.5
20260502071505 1 209 1.6 4.8 0.00 0.00 0.00 62 1020.5
20260502071503 1 209 0.0 4.8 0.00 0.00 0.00 62 1018.7
20260502071006 1 209 1.6 4.8 0.00 0.00 0.00 61 1020.5
20260502070005 1 209 3.2 4.8 0.00 0.00 0.00 61 1020.4
20260502070003 1 209 3.2 4.8 0.00 0.00 0.00 61 1018.6
20260502065505 1 209 1.6 4.8 0.00 0.00 0.00 62 1020.4
20260502065005 1 209 3.2 4.8 0.00 0.00 0.00 61 1020.5
20260502064503 1 209 1.6 6.4 0.00 0.00 0.00 61 1018.7
20260502064005 1 209 1.6 4.8 0.00 0.00 0.00 62 1020.5
20260502063006 1 209 1.6 6.4 0.00 0.00 0.00 63 1020.5
20260502063004 1 209 1.6 6.4 0.00 0.00 0.00 63 1018.7
20260502062505 1 209 1.6 6.4 0.00 0.00 0.00 64 1020.5
20260502062002 1 209 3.2 6.4 0.00 0.00 0.00 63 1020.5
20260502061502 2 209 1.6 4.8 0.00 0.00 0.00 62 1018.7
20260502061005 2 209 1.6 8.0 0.00 0.00 0.00 63 1020.4
20260502060505 2 209 4.8 8.0 0.00 0.00 0.00 62 1020.4
20260502060007 2 214 3.2 6.4 0.00 0.00 0.00 62 1020.5
20260502060004 2 214 1.6 6.4 0.00 0.00 0.00 62 1018.7
20260502055505 2 214 1.6 6.4 0.00 0.00 0.00 62 1020.5
20260502055005 2 214 3.2 6.4 0.00 0.00 0.00 61 1020.5
20260502054507 2 214 1.6 4.8 0.00 0.00 0.00 61 1018.7
20260502054006 2 311 3.2 4.8 0.00 0.00 0.00 59 1020.4
20260502053505 2 311 3.2 4.8 0.00 0.00 0.00 59 1020.4
20260502053005 2 311 3.2 4.8 0.00 0.00 0.00 59 1020.4
20260502052005 1 311 3.2 4.8 0.00 0.00 0.00 64 1020.4
20260502051507 1 311 1.6 3.2 0.00 0.00 0.00 65 1018.6
20260502051006 1 311 0.0 1.6 0.00 0.00 0.00 67 1020.3
20260502050506 1 311 0.0 0.0 0.00 0.00 0.00 67 1020.3
20260502050009 1 311 0.0 0.0 0.00 0.00 0.00 65 1020.3
20260502050005 1 311 0.0 0.0 0.00 0.00 0.00 65 1018.4
20260502045505 1 311 0.0 0.0 0.00 0.00 0.00 64 1020.3
20260502045006 1 311 0.0 0.0 0.00 0.00 0.00 63 1020.3
20260502044506 1 311 0.0 0.0 0.00 0.00 0.00 63 1018.5
20260502044007 1 311 0.0 0.0 0.00 0.00 0.00 64 1020.3
20260502043505 1 311 0.0 0.0 0.00 0.00 0.00 65 1020.3
20260502043006 1 311 0.0 1.6 0.00 0.00 0.00 66 1020.3
20260502043004 1 311 0.0 1.6 0.00 0.00 0.00 66 1018.4
20260502042506 1 311 0.0 1.6 0.00 0.00 0.00 66 1020.3
20260502042005 1 311 0.0 0.0 0.00 0.00 0.00 65 1020.2
20260502041505 1 311 0.0 0.0 0.00 0.00 0.00 64 1020.1
20260502041503 1 311 0.0 0.0 0.00 0.00 0.00 64 1018.2
20260502041006 1 311 0.0 0.0 0.00 0.00 0.00 63 1020.1
20260502040505 1 311 0.0 0.0 0.00 0.00 0.00 62 1020.1
20260502040007 2 311 0.0 0.0 0.00 0.00 0.00 61 1020.1
20260502040005 2 311 0.0 0.0 0.00 0.00 0.00 61 1018.2
20260502035505 2 311 0.0 0.0 0.00 0.00 0.00 60 1020.0
20260502034505 2 311 0.0 0.0 0.00 0.00 0.00 61 1019.8
20260502033505 2 311 0.0 0.0 0.00 0.00 0.00 61 1019.8
20260502033006 2 311 0.0 0.0 0.00 0.00 0.00 62 1019.7
20260502033004 2 311 0.0 0.0 0.00 0.00 0.00 62 1017.7
20260502032505 3 311 0.0 0.0 0.00 0.00 0.00 59 1019.6
20260502032005 3 311 0.0 0.0 0.00 0.00 0.00 58 1019.5
20260502031506 3 311 247.8 1054.1 3.40 0.00 0.00 57
20260502031007 3 311 3.2 4.8 0.00 0.00 0.00 57 1019.4
20260502030505 3 311 3.2 4.8 0.00 0.00 0.00 57 1019.3
20260502030005 3 327 1.6 4.8 0.00 0.00 0.00 56 1017.3
20260502025506 3 327 3.2 4.8 0.00 0.00 0.00 55 1019.2
20260502025006 4 327 0.0 1.6 0.00 0.00 0.00 52 1019.1
20260502024511 5 327 0.0 0.0 0.00 0.00 0.00 49 1017.0
20260502024504 5 327 0.0 0.0 0.00 0.00 0.00 49 1019.0
20260502024006 5 327 0.0 0.0 0.00 0.00 0.00 46 1019.0
20260502023506 5 327 0.0 0.0 0.00 0.00 0.00 46 1018.9
20260502023006 6 327 0.0 0.0 0.00 0.00 0.00 48 1018.8
20260502023003 6 327 0.0 0.0 0.00 0.00 0.00 48 1016.9
20260502022505 6 327 0.0 0.0 0.00 0.00 0.00 38 1018.8
20260502022006 6 327 0.0 0.0 0.00 0.00 0.00 39 1018.7
20260502021503 7 327 0.0 0.0 0.00 0.00 0.00 37 1016.7
20260502021006 7 327 0.0 0.0 0.00 0.00 0.00 36 1018.5
20260502020505 8 327 0.0 0.0 0.00 0.00 0.00 38 1018.5
20260502020007 8 327 0.0 0.0 0.00 0.00 0.00 34 1018.4
20260502020004 8 327 0.0 0.0 0.00 0.00 0.00 34 1016.6
20260502015505 8 327 0.0 0.0 0.00 0.00 0.00 33 1018.4
20260502015006 9 327 0.0 0.0 0.00 0.00 0.00 33 1018.4
20260502014505 9 327 0.0 0.0 0.00 0.00 0.00 31 1018.4
20260502014006 10 327 0.0 0.0 0.00 0.00 0.00 31 1018.3
20260502013505 10 327 0.0 1.6 0.00 0.00 0.00 31 1018.3
20260502013003 11 327 0.0 1.6 0.00 0.00 0.00 29 1016.4
20260502012505 11 327 0.0 1.6 0.00 0.00 0.00 28 1018.2
20260502012007 11 327 0.0 1.6 0.00 0.00 0.00 28 1018.2
20260502011505 11 327 0.0 9.7 0.00 0.00 0.00 28 1018.1
20260502010506 12 5 0.0 4.8 0.00 0.00 0.00 27 1018.0
20260502010010 12 5 0.0 4.8 0.00 0.00 0.00 25 1016.4
20260502010007 12 5 1.6 4.8 0.00 0.00 0.00 25 1018.0
20260502005505 11 355 1.6 9.7 0.00 0.03 0.00 25 1018.0
20260502005006 11 19 4.8 9.7 0.00 0.03 0.00 24 1018.0
20260502004505 11 16 3.2 6.4 0.00 0.03 0.00 25 1018.0
20260502004503 11 16 1.6 6.4 0.00 0.03 0.00 25 1016.5
20260502004005 11 336 3.2 14.5 0.00 0.03 0.00 23 1018.0
20260502003505 11 332 6.4 14.5 0.00 0.03 0.00 24 1018.0
20260502003003 12 325 3.2 12.9 0.00 0.03 0.00 26 1016.5
20260502002506 12 334 3.2 8.0 0.00 0.03 0.00 26 1017.9
20260502002007 12 327 3.2 12.9 0.00 0.03 0.00 24 1017.9
20260502001508 11 5 4.8 20.9 0.00 0.03 0.00 27 1018.0
20260502001503 11 5 3.2 20.9 0.00 0.03 0.00 27 1016.7
20260502001006 11 27 12.9 19.3 0.00 0.03 0.00 25 1017.9
20260502000505 11 23 11.3 20.9 0.00 0.03 0.00 24 1017.9
20260502000006 11 49 9.7 17.7 0.00 0.03 0.00 25 1017.8
20260502000003 11 49 8.0 17.7 0.00 0.03 0.00 25 1016.6
20260501235505 11 21 8.0 19.3 0.00 0.03 0.00 26 1017.8
20260501235006 11 19 6.4 14.5 0.00 0.03 0.00 26 1017.8
20260501234505 11 16 8.0 24.1 0.00 0.03 0.00 25 1017.8
20260501234006 11 16 12.9 25.7 0.00 0.03 0.00 27 1017.8
20260501233006 11 5 6.4 20.9 0.00 0.03 0.00 28 1017.9
20260501233004 11 5 4.8 20.9 0.00 0.03 0.00 28 1016.8
20260501232505 11 55 12.9 24.1 0.00 0.03 0.00 26 1017.9
20260501232006 12 11 16.1 24.1 0.00 0.03 0.00 25 1017.9
20260501231505 12 360 6.4 14.5 0.00 0.03 0.00 26 1017.9
20260501231503 12 360 6.4 14.5 0.00 0.03 0.00 26 1016.8
20260501231006 11 325 4.8 19.3 0.00 0.03 0.00 29 1017.8
20260501230004 11 300 8.0 17.7 0.00 0.03 0.00 29 1016.7
20260501225501 11 324 4.8 14.5 0.00 0.03 0.00 30 1017.8
20260501225006 11 338 4.8 9.7 0.00 0.03 0.00 28 1017.9
20260501224506 11 321 4.8 14.5 0.00 0.03 0.00 27 1017.9
20260501224006 12 320 6.4 14.5 0.00 0.03 0.00 28 1017.8
20260501223506 11 347 3.2 14.5 0.00 0.03 0.00 35 1017.8
20260501223006 11 342 6.4 14.5 0.00 0.03 0.00 31 1017.8
20260501223004 11 342 6.4 14.5 0.00 0.03 0.00 31 1016.8
20260501222505 10 316 3.2 12.9 0.00 0.03 0.00 32 1017.8
20260501222005 10 355 4.8 12.9 0.00 0.03 0.00 35 1017.8
20260501221506 10 360 1.6 9.7 0.00 0.03 0.00 35 1017.0
20260501221006 10 355 3.2 14.5 0.00 0.03 0.00 36 1018.0
20260501220505 10 338 8.0 14.5 0.00 0.03 0.00 35 1018.0
20260501220004 10 301 1.6 12.9 0.00 0.03 0.00 34 1017.1
20260501215505 10 25 8.0 16.1 0.00 0.03 0.00 34 1018.0
20260501215006 10 22 9.7 16.1 0.00 0.03 0.00 35 1018.0
20260501214503 10 18 6.4 16.1 0.00 0.03 0.00 36 1017.2
20260501213506 10 11 11.3 16.1 0.00 0.03 0.00 34 1018.1
20260501213003 10 40 3.2 16.1 0.00 0.03 0.00 36 1017.4
20260501212505 10 38 4.8 20.9 0.00 0.03 0.00 34 1018.1
20260501212007 10 76 8.0 17.7 0.00 0.03 0.00 35 1018.1
20260501211506 10 15 6.4 17.7 0.00 0.03 0.00 37 1018.2
20260501211504 10 15 4.8 17.7 0.00 0.03 0.00 37 1017.6
20260501211007 10 355 4.8 17.7 0.00 0.03 0.00 35 1018.3
20260501210506 10 58 8.0 11.3 0.00 0.03 0.00 37 1018.4
20260501210007 10 57 6.4 11.3 0.00 0.03 0.00 38 1018.4
20260501210004 10 57 4.8 11.3 0.00 0.03 0.00 38 1017.9